Home   Weather   Des Moines   Past weeks

Flag for USA Past Weather in Des Moines, Iowa, USA — Yesterday and Last 2 Weeks

61 °F

Partly sunny.

Feels Like: 61 °F
Forecast: 43 / 63 °F
Wind: 8 mph from Southeast

Location: Des Moines International Airport

Current Time: Oct 24, 2016 at 5:02:35 PM

Latest Report: Oct 24, 2016 at 3:54 PM

Visibility: 10 mi

Pressure: 30.34 "Hg

Humidity: 46%

Dew Point: 40 °F

Location of Des MoinesLocation

Past Weather in Des Moines — Graph


Des Moines Temperature Yesterday

Maximum temperature yesterday: 74 °F (at 2:54 PM)
Minimum temperature yesterday: 50 °F (at 4:54 AM)
Average temperature yesterday: 60 °F

High & Low Weather Summary for the Past Weeks

High86 °F (Oct 17, 2:54 PM)100% (Oct 16, 12:54 AM)30.43 "Hg (Oct 16, 12:54 AM)
Low34 °F (Oct 13, 6:54 AM)21% (Oct 23, 3:54 PM)29.28 "Hg (Oct 17, 2:54 PM)
Average58 °F70%30.02 "Hg
* Reported Oct 9 3:54 PM — Oct 24 3:54 PM, Des Moines, Weather by CustomWeather, © 2016

Note: Actual official high and low records may vary slightly from our data, if they occured in-between our weather recording intervals... More about our weather records


Des Moines Weather History for the Previous 24 Hours

Scroll right to see more
Time TempWeatherWind HumidityBarometerVisibility
3:54 PM
Mon, Oct 24
61 °FPartly sunny.8 mph46%30.34 "Hg10 mi
2:54 PM62 °FScattered clouds.8 mph46%30.36 "Hg10 mi
1:54 PM61 °FScattered clouds.9 mph48%30.38 "Hg10 mi
12:54 PM59 °FBroken clouds.9 mph51%30.40 "Hg10 mi
11:54 AM57 °FPartly sunny.8 mph55%30.42 "Hg10 mi
10:54 AM54 °FScattered clouds.8 mph64%30.42 "Hg10 mi
9:54 AM50 °FPassing clouds.7 mph68%30.43 "Hg10 mi
8:54 AM47 °FPassing clouds.8 mph77%30.41 "Hg10 mi
7:54 AM43 °FPassing clouds.8 mph86%30.39 "Hg10 mi
6:54 AM44 °FPassing clouds.8 mph85%30.37 "Hg10 mi
5:54 AM45 °FClear.7 mph82%30.36 "Hg10 mi
4:54 AM46 °FClear.8 mph79%30.33 "Hg10 mi
3:54 AM46 °FClear.7 mph79%30.32 "Hg10 mi
2:54 AM46 °FClear.5 mph79%30.31 "Hg10 mi
1:54 AM48 °FClear.7 mph77%30.29 "Hg10 mi
12:54 AM49 °FClear.8 mph74%30.28 "Hg10 mi
11:54 PM
Sun, Oct 23
51 °FClear.9 mph71%30.26 "Hg10 mi
10:54 PM53 °FClear.10 mph66%30.24 "Hg10 mi
9:54 PM56 °FClear.14 mph60%30.22 "Hg10 mi
8:54 PM59 °FClear.12 mph49%30.18 "Hg10 mi
7:54 PM62 °FClear.10 mph38%30.16 "Hg10 mi
6:54 PM65 °FClear.10 mph32%30.12 "Hg10 mi
5:54 PM69 °FPassing clouds.9 mph25%30.09 "Hg10 mi
Weather by CustomWeather, © 2016

See weather overviewHow to use our weather pages